Weather History for KCMI - November, 2014

Change the Weather History Date:

Sunday, November 30, 2014

  Actual Average Record
Temperature  
Mean Temperature 49 °F 34 °F  
Max Temperature 65 °F 43 °F 65 °F (2014)
Min Temperature 32 °F 26 °F 18 °F (2002)
Degree Days  
Heating Degree Days 16 31  
Month to date heating degree days 908 704  
Since 1 July heating degree days 1350 1164  
Cooling Degree Days 0 0  
Month to date cooling degree days 0 1  
Year to date cooling degree days 948 945  
Moisture  
Dew Point 45 °F    
Average Humidity 85    
Maximum Humidity 96    
Minimum Humidity 73    
Precipitation  
Precipitation 0.00 in 0.11 in 1.29 in (2006)
Month to date precipitation 2.22 3.50  
Year to date precipitation 37.39 37.20  
Sea Level Pressure  
Sea Level Pressure 29.93 in    
Wind  
Wind Speed 19 mph (West)    
Max Wind Speed 28 mph    
Max Gust Speed 35 mph    
Visibility 7 miles    
Events      
T = Trace of Precipitation, MM = Missing Value Source: NWS Daily Summary

Daily Weather History Graph

Daily Weather History Graph

Search for Another Location

Airport or City:

Trip Planner

Search our weather history database for the weather conditions in past years. The results will help you decide how hot, cold, wet, or windy it might be!

Date:

Astronomy

Nov. 30, 2014 Rise Set
Actual Time 6:54 AM CST 4:28 PM CST
Civil Twilight 6:24 AM CST 4:58 PM CST
Nautical Twilight 5:51 AM CST 5:32 PM CST
Astronomical Twilight 5:18 AM CST 6:04 PM CST
Moon 12:58 PM CST (11/30) 12:25 AM CST (11/30)
Length of Visible Light 10h 33m
Length of Day
9h 33m
Waxing Gibbous, 65% of the Moon is Illuminated
Nov 30
Waxing Gibbous
Dec 6
Full
Dec 14
Last Quarter
Dec 21
New
Dec 28
First Quarter

Hourly Weather History & Observations

Time (CST) Temp. Windchill Dew Point Humidity Pressure Visibility Wind Dir Wind Speed Gust Speed Precip Events Conditions
12:53 AM 50.0 °F - 48.0 °F 93% 29.72 in 6.0 mi South 12.7 mph - N/A   Clear
1:53 AM 52.0 °F - 50.0 °F 93% 29.72 in 9.0 mi South 15.0 mph - N/A   Clear
2:53 AM 53.1 °F - 51.1 °F 93% 29.73 in 9.0 mi SSW 19.6 mph 28.8 mph N/A   Clear
3:53 AM 53.1 °F - 51.1 °F 93% 29.73 in 10.0 mi South 19.6 mph - N/A   Clear
4:53 AM 54.0 °F - 51.1 °F 90% 29.73 in 10.0 mi South 18.4 mph - N/A   Clear
5:53 AM 54.0 °F - 52.0 °F 93% 29.75 in 10.0 mi South 20.7 mph 27.6 mph N/A   Clear
6:53 AM 54.0 °F - 52.0 °F 93% 29.77 in 10.0 mi SSW 20.7 mph - N/A   Clear
7:53 AM 55.0 °F - 53.1 °F 93% 29.79 in 10.0 mi SSW 21.9 mph - N/A   Clear
8:53 AM 57.9 °F - 54.0 °F 87% 29.80 in 10.0 mi SSW 19.6 mph - N/A   Partly Cloudy
9:53 AM 60.1 °F - 55.0 °F 83% 29.82 in 10.0 mi SSW 21.9 mph 33.4 mph N/A   Overcast
10:07 AM 61.0 °F - 55.0 °F 81% 29.82 in 10.0 mi SSW 23.0 mph 31.1 mph N/A   Mostly Cloudy
10:43 AM 61.0 °F - 55.9 °F 83% 29.82 in 10.0 mi SSW 20.7 mph 31.1 mph N/A   Mostly Cloudy
10:53 AM 62.1 °F - 55.9 °F 80% 29.82 in 10.0 mi SSW 25.3 mph 32.2 mph N/A   Mostly Cloudy
11:16 AM 63.0 °F - 55.9 °F 78% 29.82 in 10.0 mi SW 26.5 mph 33.4 mph N/A   Overcast
11:53 AM 64.0 °F - 55.9 °F 75% 29.81 in 10.0 mi SW 23.0 mph 33.4 mph N/A   Mostly Cloudy
12:19 PM 64.0 °F - 55.9 °F 75% 29.81 in 10.0 mi SW 17.3 mph 29.9 mph N/A   Overcast
12:53 PM 64.0 °F - 55.9 °F 75% 29.82 in 10.0 mi SW 21.9 mph 28.8 mph N/A   Overcast
1:00 PM 64.0 °F - 55.9 °F 75% 29.82 in 10.0 mi SW 21.9 mph 31.1 mph N/A   Overcast
1:53 PM 60.1 °F - 55.0 °F 83% 29.85 in 10.0 mi WNW 15.0 mph - N/A   Overcast
2:00 PM 59.0 °F - 54.0 °F 83% 29.86 in 10.0 mi WNW 15.0 mph - N/A   Overcast
2:53 PM 51.1 °F - 46.9 °F 86% 29.91 in 7.0 mi NW 19.6 mph - N/A   Overcast
3:01 PM 48.9 °F - 45.0 °F 86% 29.91 in 6.0 mi NNW 17.3 mph - N/A   Overcast
3:47 PM 42.8 °F 33.5 °F 39.2 °F 87% 29.97 in 2.5 mi NW 23.0 mph - N/A   Overcast
3:53 PM 41.0 °F 31.6 °F 39.0 °F 93% 29.99 in 2.5 mi NW 20.7 mph - N/A   Overcast
4:09 PM 39.9 °F 30.0 °F 37.9 °F 93% 29.99 in 2.5 mi NW 21.9 mph - N/A   Overcast
4:48 PM 37.4 °F 27.5 °F 35.6 °F 93% 30.03 in 3.0 mi NW 18.4 mph - N/A   Overcast
4:53 PM 37.0 °F 27.0 °F 34.0 °F 89% 30.04 in 3.0 mi NW 18.4 mph - N/A   Overcast
5:53 PM 36.0 °F 26.7 °F 33.1 °F 89% 30.09 in 3.0 mi NNW 15.0 mph - N/A   Overcast
6:09 PM 35.1 °F 24.1 °F 33.1 °F 92% 30.09 in 2.5 mi NW 19.6 mph - N/A   Overcast
6:53 PM 35.1 °F 25.2 °F 33.1 °F 92% 30.13 in 3.0 mi NW 16.1 mph - N/A   Overcast
7:53 PM 34.0 °F 25.0 °F 30.9 °F 89% 30.16 in 4.0 mi NNW 12.7 mph - N/A   Overcast
8:53 PM 33.1 °F 23.0 °F 30.9 °F 92% 30.19 in 3.0 mi NNW 15.0 mph - N/A   Overcast
9:53 PM 33.1 °F 23.0 °F 30.0 °F 89% 30.21 in 4.0 mi NNW 15.0 mph - N/A   Overcast
10:35 PM 33.1 °F 22.2 °F 28.9 °F 85% 30.23 in 6.0 mi NNW 17.3 mph - N/A   Overcast
10:53 PM 33.1 °F 21.9 °F 28.9 °F 85% 30.25 in 6.0 mi NNW 18.4 mph - N/A   Overcast
11:44 PM 32.0 °F 20.1 °F 25.0 °F 75% 30.26 in 9.0 mi NNW 19.6 mph - N/A   Overcast
11:53 PM 32.0 °F 20.1 °F 25.0 °F 75% 30.28 in 10.0 mi NNW 19.6 mph - N/A   Overcast